Other Surface Observations
Issued by NWS

Home | Current Version | Previous Version | Text Only | Print | Product List | Glossary On
Versions: 1 2 3 4 5 6 7 8 9 10 11 12 13 14 15 16 17 18 19 20 21 22 23 24 25 26 27 28 29 30 31 32 33 34 35 36 37 38 39 40 41 42 43 44 45 46 47 48 49 50
295
SXUS52 KTAE 242318
OSOTAE
OSOTAE
North Florida/South Alabama/Southwest Georgia Weather Roundup
National Weather Service Tallahassee Florida
600 PM EST FRI NOV 24 2017

Note: "fair" indicates few or no clouds below 12,000 feet with no
significant weather and/or obstructions to visibility.

!FLZ017-115-028-034-025-250000
...North Florida...

CITY           SKY/WX    TMP DP  RH WIND       PRES   REMARKS
TALLAHASSEE    PTCLDY    63  49  60 CALM      29.94R
APALACHICOLA   CLEAR     62  58  86 SW6       29.95R
PERRY          CLEAR     59  51  73 CALM      29.95R
CROSS CITY     CLEAR     60  57  90 CALM      29.98R
JACKSONVILLE   CLEAR     61  52  72 NE3       29.94R
$$

!FLZ112-006-005-002-011-250000
...Florida Panhandle...

CITY           SKY/WX    TMP DP  RH WIND       PRES   REMARKS
MARIANNA       CLEAR     63  46  54 CALM      29.95R
BONIFAY        NOT AVBL
PANAMA CITY NW FAIR      61  53  75 CALM      29.95R
TYNDALL AFB    CLEAR     62  52  71 CALM      29.95R
TYND DRONE APT FAIR      60  55  85 CALM      29.95R
DE FUNIAK SPR  MOCLDY    62  51  68 SW5       29.96R
EGLIN AFB      PTCLDY    63  52  67 W6        29.95R
DESTIN         PTCLDY    67  53  61 CALM      29.96R
HURLBURT       PTCLDY    64  53  67 W3        29.95R
CRESTVIEW      CLEAR     61  49  64 W3        29.97R
PENSACOLA      CLEAR     61  52  72 S5        29.95R
$$

!ALZ063-066-250000
...South Alabama...

CITY           SKY/WX    TMP DP  RH WIND       PRES   REMARKS
DOTHAN         CLEAR     58  45  62 CALM      29.99R
OZARK CAIRNS   CLEAR     59  47  64 CALM      29.95R
FT RUCKER HELI CLEAR     58  50  75 CALM      29.95R
RUCKER HELI 3    N/A     59  49  68 CALM      29.95R
RUCKER HELI 2  FAIR      59  51  76 CALM      29.95R
FLORALA APT    CLEAR     58  50  75 CALM      29.98R
ANDALUSIA      CLEAR     61  50  67 CALM      29.95R
TROY           CLEAR     57  49  74 CALM      29.96R
EUFALA         FAIR      53  49  86 CALM      29.95R
MOBILE         CLEAR     61  43  51 W3        29.96R
$$

!GAZ120>161-250000
...Southwest and South Central Georgia...

CITY           SKY/WX    TMP DP  RH WIND       PRES   REMARKS
THOMASVILLE    FAIR      59  50  72 CALM      29.96R
BAINBRIDGE     CLEAR     61  50  67 CALM      29.96R
MOODY AFB      CLEAR     56  49  77 CALM      29.94R
VALDOSTA       CLEAR     53  47  79 CALM      29.95R
MOULTRIE       CLEAR     55  45  67 CALM      29.96R
BLAKELY        CLEAR     59  46  63 CALM      29.96R
ALBANY         CLEAR     57  44  62 CALM      29.94R
TIFTON         FAIR      54  44  69 CALM      29.96R
FITZGERALD     FAIR      52  45  78 CALM      29.98R
CORDELE        FAIR      59  42  54 CALM      29.97R
AMERICUS       FAIR      54  43  66 CALM      29.98R
HOMERVILLE     FAIR      54  50  87 CALM      29.96R
$$

!GMZ750-755-770-775-250000
...Coastal and Buoy Obs...

STATION/POSITION TIME  TEMP    WIND        PRES    VSBY  WAVE
                       AIR SEA DIR/SP/G                  HT/PER
                 (UTC) (F)     (DEG/KT/KT) (MB)    (MI)  (FT/S)
KEATON BEACH     2300   64     340/  3/  4 1013.8R
CEDAR KEY        2300   64     300/  6/  8 1014.2R
C TOWER          2300   65     280/  4/  5 1015.1R
APALACHICOLA BUO NOT AVBL
PANAMA CITY BUOY 2250   68 76  110/  2/  4 1014.2R         2/ 5
MOBILE BUOY      2300   65 77  310/  8/ 12 1014.9
ORANGE BCH AL BU NOT AVBL
$$




USA.gov is the U.S. government's official web portal to all federal, state and local government web resources and services.